Szeged, Hungary

12:51 AM CET on January 20, 2018 (GMT +0100)
Szeged

Weather History for LHUD - October, 2011

Change the Weather History Date:

Friday, October 7, 2011

  Actual Average (LRAR) Record (LRAR)
Temperature  
Mean Temperature 61 °F -  
Max Temperature 74 °F 60 °F 80 °F (1998)
Min Temperature 46 °F 40 °F 33 °F (2013)
Degree Days  
Heating Degree Days 4    
Growing Degree Days 11 (Base 50)    
Moisture  
Dew Point 46 °F    
Average Humidity 67    
Maximum Humidity 87    
Minimum Humidity 36    
Precipitation  
Precipitation 0.08 in 0.04 in - ()
Sea Level Pressure  
Sea Level Pressure 29.75 in    
Wind  
Wind Speed 9 mph ()    
Max Wind Speed 22 mph    
Max Gust Speed -    
Visibility 6.4 miles    
Events Rain    
Averages and records for this station are not official NWS values.
T = Trace of Precipitation, MM = Missing Value Source: Averaged Metar Reports

Daily Weather History Graph

Daily Weather History Graph

Search for Another Location

Airport or City:

Trip Planner

Search our weather history database for the weather conditions in past years. The results will help you decide how hot, cold, wet, or windy it might be!

Date:

Astronomy

Oct. 07, 2011 Rise Set
Actual Time 6:45 AM CEST 6:09 PM CEST
Civil Twilight 6:15 AM CEST 6:39 PM CEST
Nautical Twilight 5:40 AM CEST 7:13 PM CEST
Astronomical Twilight 5:05 AM CEST 7:48 PM CEST
Moon 3:55 PM CEST (10/7) 2:01 AM CEST (10/7)
Length of Visible Light 12h 23m
Length of Day
11h 23m
Waxing Gibbous, 81% of the Moon is Illuminated
Oct 7
Waxing Gibbous
Oct 12
Full
Oct 20
Last Quarter
Oct 26
New
Nov 2
First Quarter

Hourly Weather History & Observations

Time (CEST) Temp. Windchill Dew Point Humidity Pressure Visibility Wind Dir Wind Speed Gust Speed Precip Events Conditions
12:45 AM 55.4 °F - 48.2 °F 77% 29.89 in - South 3.5 mph - N/A   Clear
1:45 AM 55.4 °F - 48.2 °F 77% 29.86 in - South 4.6 mph - N/A   Clear
2:00 AM 54 °F - 48 °F 73% 29.87 in 12 mi South 4.5 mph - -   Partly Cloudy
2:45 AM 53.6 °F - 48.2 °F 82% 29.86 in - SSE 5.8 mph - N/A   Clear
3:45 AM 50.0 °F - 46.4 °F 87% 29.83 in - SE 8.1 mph - N/A   Clear
4:45 AM 50.0 °F - 46.4 °F 87% 29.83 in - SSE 5.8 mph - N/A   Clear
5:45 AM 50.0 °F - 46.4 °F 87% 29.80 in - SSE 5.8 mph - N/A   Clear
6:15 AM 50.0 °F - 44.6 °F 82% 29.80 in 2.8 mi SSE 5.8 mph - N/A   Partly Cloudy
6:45 AM 50.0 °F - 46.4 °F 87% 29.80 in - SSE 6.9 mph - N/A   Partly Cloudy
7:15 AM 51.8 °F - 46.4 °F 82% 29.80 in - South 8.1 mph - N/A   Partly Cloudy
7:45 AM 51.8 °F - 46.4 °F 82% 29.80 in - South 6.9 mph - N/A   Partly Cloudy
8:00 AM 52 °F - 47 °F 77% 29.79 in 2 mi South 6.7 mph - -   Mist
8:15 AM 55.4 °F - 50.0 °F 82% 29.80 in 2.5 mi South 4.6 mph - N/A   Partly Cloudy
8:45 AM 59.0 °F - 50.0 °F 72% 29.80 in 3.7 mi South 5.8 mph - N/A   Partly Cloudy
9:15 AM 62.6 °F - 50.0 °F 63% 29.80 in 5.0 mi South 5.8 mph - N/A   Mostly Cloudy
9:45 AM 62.6 °F - 48.2 °F 59% 29.80 in - South 9.2 mph - N/A   Clear
10:15 AM 68.0 °F - 48.2 °F 49% 29.77 in - South 8.1 mph - N/A   Clear
10:45 AM 73.4 °F - 46.4 °F 38% 29.77 in - SSW 10.4 mph - N/A   Clear
11:15 AM 73.4 °F - 44.6 °F 36% 29.74 in - SW 12.7 mph - N/A   Clear
11:45 AM 75.2 °F - 46.4 °F 36% 29.74 in - West 11.5 mph - N/A   Clear
12:15 PM 69.8 °F - 48.2 °F 46% 29.74 in - NNW 16.1 mph - N/A   Clear
12:45 PM 71.6 °F - 48.2 °F 43% 29.74 in - NNW 15.0 mph - N/A   Clear
1:15 PM 69.8 °F - 48.2 °F 46% 29.74 in - NNW 13.8 mph - N/A   Clear
1:45 PM 68.0 °F - 46.4 °F 46% 29.71 in 6.2 mi NNW 13.8 mph - N/A   Partly Cloudy
2:00 PM 68 °F - 47 °F 36% 29.70 in 19 mi NNW 13.4 mph - -   Partly Cloudy
2:15 PM 66.2 °F - 46.4 °F 49% 29.68 in - NNW 13.8 mph - N/A   Clear
2:45 PM 66.2 °F - 46.4 °F 49% 29.68 in 6.2 mi NNW 15.0 mph - N/A   Mostly Cloudy
3:15 PM 62.6 °F - 44.6 °F 52% 29.68 in 6.2 mi NNW 15.0 mph - N/A   Mostly Cloudy
3:45 PM 60.8 °F - 44.6 °F 55% 29.65 in 6.2 mi NNW 18.4 mph - N/A   Mostly Cloudy
4:15 PM 60.8 °F - 44.6 °F 55% 29.65 in 6.2 mi NNW 18.4 mph - N/A   Mostly Cloudy
4:45 PM 59.0 °F - 44.6 °F 59% 29.68 in 6.2 mi NW 17.3 mph - N/A   Mostly Cloudy
5:15 PM 55.4 °F - 46.4 °F 72% 29.68 in 6.2 mi NW 12.7 mph - N/A Rain Light Rain Showers
5:45 PM 53.6 °F - 48.2 °F 82% 29.68 in 6.2 mi NNW 17.3 mph - N/A   Scattered Clouds
6:15 PM 51.8 °F - 46.4 °F 82% 29.65 in - NW 18.4 mph - N/A   Clear
6:45 PM 51.8 °F - 46.4 °F 82% 29.68 in 6.2 mi NW 18.4 mph - N/A   Scattered Clouds
7:15 PM 51.8 °F - 44.6 °F 76% 29.68 in 6.2 mi NW 20.7 mph - N/A   Mostly Cloudy
7:45 PM 50.0 °F - 44.6 °F 82% 29.71 in 6.2 mi NW 21.9 mph - N/A   Mostly Cloudy
8:00 PM 50 °F - 44 °F 73% 29.70 in 22 mi NW 20.1 mph - -   Partly Cloudy
8:15 PM 50.0 °F - 42.8 °F 76% 29.71 in 6.2 mi NW 20.7 mph - N/A   Overcast
8:45 PM 50.0 °F - 42.8 °F 76% 29.74 in 6.2 mi NW 17.3 mph - N/A   Overcast
9:15 PM 50.0 °F - 41.0 °F 71% 29.71 in 6.2 mi NW 17.3 mph - N/A   Mostly Cloudy
9:45 PM 48.2 °F - 42.8 °F 82% 29.74 in 6.2 mi WNW 17.3 mph - N/A   Mostly Cloudy
10:45 PM 48.2 °F - 41.0 °F 76% 29.77 in 6.2 mi WNW 16.1 mph - N/A Rain Light Rain
11:45 PM 46.4 °F 41.9 °F 42.8 °F 87% 29.80 in 6.2 mi West 9.2 mph - N/A Rain Light Rain